Track STARLINK-1782 now! 10-day predictions STARLINK-1782 is classified as:
1 47548U 21009A 22182.57477360 .00001814 00000-0 14068-3 0 9990 2 47548 53.0555 299.0608 0001429 55.8691 304.2434 15.06397016 77896